Wetbulb
53.60 53.73 53.55 53.37 53.32 52.75 52.77 53.25 52.70 52.66 52.78 52.64 53.58 54.92 56.86 58.19 58.93 59.87 60.03 58.60 57.48 57.89 57.65 57.38 58.09 58.57 57.94 52.39 51.70 57.86 57.99 59.21 61.92 61.07 57.26 54.66 51.88 50.48 47.25 48.18 49.16 48.14 49.24 50.72 52.13 52.47 52.49
53.50 53.34 53.05 52.55 52.81 52.55 52.79 52.20 52.06 51.74 51.70 52.10 52.53 53.92 54.76 56.67 57.33 59.11 59.83 59.30 57.94 57.87 57.48 57.83 57.94 57.25 52.69 47.48 55.10 55.87 55.65 58.27 59.99 59.68 56.88 55.22 52.57 52.64 48.47 47.71 47.34 48.51 48.98 49.59 50.53 50.49 51.11
52.53 52.38 52.58 53.03 52.54 52.95 52.90 52.78 52.43 51.91 51.53 51.57 51.82 52.87 53.26 54.05 56.08 57.36 59.06 58.59 58.19 57.71 57.73 57.84 57.55 55.71 50.21 48.20 54.86 55.38 54.93 53.21 56.74 59.32 55.34 55.70 55.03 52.02 51.39 47.29 50.40 48.95 45.35 47.70 48.40 49.02 48.46
52.74 52.51 52.82 52.93 53.26 52.61 52.49 52.32 52.07 51.78 51.75 51.50 50.74 52.20 52.41 53.06 55.06 56.20 58.10 58.74 58.42 58.00 57.75 57.56 57.30 53.25 46.36 53.68 56.37 54.21 54.62 53.93 55.83 56.86 57.70 57.99 57.19 52.31 49.03 50.17 47.39 44.58 44.94 40.83 46.34 47.63 48.48
52.52 53.45 53.28 52.79 52.54 52.60 52.23 51.94 51.60 51.33 51.27 51.00 51.29 50.83 51.50 52.23 53.72 54.38 56.46 58.64 58.07 57.84 57.48 57.57 52.18 48.90 44.19 53.48 50.03 53.52 54.38 52.35 53.70 53.68 56.16 56.82 53.12 47.97 47.78 42.68 40.75 42.26 37.93 39.62 42.02 47.27 47.15
53.97 52.74 52.78 52.86 52.66 52.42 52.14 51.66 51.42 51.18 50.79 50.76 50.45 50.58 51.10 51.82 52.93 53.77 54.80 58.63 57.47 56.69 55.47 53.45 51.25 45.88 47.95 45.45 50.08 51.53 53.37 52.98 50.67 50.98 49.15 48.55 47.85 43.59 43.26 41.03 35.19 37.25 37.23 39.01 39.10 43.79 44.91
52.89 52.69 52.97 52.76 52.34 52.14 51.87 51.57 50.96 50.63 50.11 50.08 50.03 50.27 50.87 51.70 52.16 52.82 52.74 54.16 47.01 46.33 49.27 45.25 45.31 44.35 46.21 49.94 52.11 49.46 51.69 50.03 49.76 48.47 42.51 44.78 40.44 37.12 40.26 42.01 41.74 39.51 38.59 38.26 41.43 44.35 42.24
52.77 53.19 52.67 52.34 52.00 51.71 51.25 50.81 50.74 50.30 49.79 49.47 49.67 49.75 50.60 50.71 51.50 51.99 51.12 47.30 47.53 49.95 42.10 47.14 47.09 46.91 48.39 49.54 44.33 47.47 51.33 45.22 44.23 40.09 43.34 40.21 36.04 41.98 42.32 41.84 40.04 39.29 37.50 37.68 41.01 42.97 41.35
52.82 52.59 52.04 52.29 51.63 51.26 50.70 50.52 50.15 50.05 49.56 49.41 49.15 49.61 49.84 50.42 50.72 49.47 47.27 48.09 50.85 49.44 42.11 43.14 46.20 45.18 46.05 48.03 44.05 44.85 48.15 45.63 42.61 39.87 40.27 38.20 38.78 41.33 40.24 39.09 37.44 38.30 37.18 37.37 36.68 40.24 41.44
51.83 50.90 51.54 51.30 50.96 50.49 50.23 49.95 49.82 49.79 49.66 49.40 49.06 49.19 49.56 49.87 47.05 47.93 45.92 52.12 50.59 47.54 35.88 35.84 40.92 44.35 46.08 47.28 42.26 49.23 49.72 45.79 41.74 38.93 40.08 39.33 42.49 38.52 37.89 36.95 38.67 34.58 39.83 38.19 36.37 34.47 30.84
51.28 51.25 50.51 50.43 50.06 49.99 49.87 49.69 49.58 49.51 49.20 49.82 49.20 49.39 49.59 49.55 46.64 43.67 48.39 51.18 48.21 45.75 25.29 37.32 39.14 49.01 46.85 42.35 43.41 43.68 49.70 45.45 39.48 39.00 39.12 36.44 37.17 37.05 34.94 36.46 39.39 35.63 39.26 37.42 37.17 35.13 33.14
50.97 50.25 49.85 49.76 49.70 49.52 49.38 49.20 49.22 49.25 49.39 50.01 49.03 49.35 49.40 47.87 47.91 48.00 51.80 49.87 45.64 30.73 24.14 34.02 39.76 39.82 39.44 40.98 42.09 44.04 44.28 46.72 45.07 39.62 39.63 38.89 41.39 39.73 38.95 40.14 40.26 40.28 37.31 36.66 35.96 33.27 26.80
49.72 49.65 49.68 49.60 49.39 49.02 49.01 48.89 48.93 48.97 48.74 49.07 49.18 49.34 48.33 48.30 42.94 51.28 51.10 43.44 29.96 28.99 36.06 33.08 35.03 38.21 37.23 36.54 39.22 40.61 39.44 37.71 36.10 31.66 32.33 35.96 37.63 40.17 40.51 36.08 39.32 38.32 33.87 28.41 24.91 24.49 25.61
50.12 49.88 49.36 49.24 48.96 48.62 48.73 48.51 48.79 48.45 48.41 48.70 49.56 50.32 49.37 49.12 50.17 50.88 46.11 35.30 27.72 32.47 33.72 38.27 38.27 37.61 35.29 37.63 38.20 38.59 37.34 35.03 39.03 37.03 32.99 30.85 29.86 37.12 39.97 37.12 35.33 34.77 34.53 28.68 21.42 24.31 27.92
49.74 49.44 48.93 48.73 48.76 48.69 48.66 48.34 48.38 48.53 49.59 49.92 50.09 47.59 46.83 48.64 50.75 47.62 38.37 31.34 31.46 33.41 37.42 35.56 37.17 33.82 34.30 36.36 37.86 36.74 35.87 35.09 37.69 38.29 32.47 30.33 29.34 37.91 39.42 40.39 39.38 33.92 30.10 37.08 30.15 31.59 26.21
49.47 49.26 48.73 48.62 48.62 48.55 48.48 48.23 47.94 48.21 49.77 50.37 45.89 43.61 45.58 49.51 49.43 44.73 34.68 34.36 33.33 39.22 39.53 38.84 32.71 35.18 31.21 33.76 34.60 34.60 35.09 39.08 38.38 41.31 41.63 35.95 29.73 36.00 37.92 40.12 39.74 37.20 38.48 29.56 30.59 21.58 20.95
49.30 49.08 48.85 48.47 48.49 48.23 48.10 47.41 48.00 48.71 49.92 50.47 43.85 39.31 47.28 49.57 46.99 37.72 33.07 33.35 37.56 41.36 41.39 37.77 35.41 34.64 35.44 34.10 35.35 34.50 35.42 37.51 40.20 40.23 41.70 38.76 33.86 32.42 35.64 33.69 33.78 33.44 31.44 33.37 32.72 31.12 22.93
49.16 48.96 48.85 48.54 48.08 47.98 47.83 47.14 48.38 48.91 49.77 48.29 41.21 34.09 47.19 48.38 35.30 36.15 35.05 35.45 41.04 39.74 43.18 40.82 40.34 38.45 36.34 36.57 34.58 34.99 34.75 36.43 40.92 41.29 36.39 39.46 34.88 29.22 32.02 38.74 40.08 38.52 34.81 33.45 27.63 25.92 29.47
49.00 48.76 48.54 48.31 47.92 47.73 47.32 47.15 48.22 48.90 49.90 46.57 37.39 39.33 47.65 47.26 34.19 35.48 36.91 38.27 41.15 39.90 40.79 40.27 38.88 40.07 39.87 36.57 33.37 36.27 36.17 40.14 40.91 40.37 38.35 39.17 33.39 27.44 31.37 34.67 37.56 33.62 35.90 35.79 34.18 33.04 28.09
48.35 48.53 48.19 47.99 47.85 48.14 47.08 46.82 47.94 48.76 50.73 48.49 38.69 34.68 39.43 42.19 42.90 37.32 36.56 36.62 37.72 43.00 41.64 42.07 40.16 41.43 39.00 36.54 38.11 35.30 35.73 39.36 41.00 41.01 41.51 41.32 35.80 31.76 28.98 32.99 36.26 33.01 33.83 34.81 33.52 28.66 29.78
48.36 48.40 48.01 47.90 47.58 47.63 47.30 47.10 48.56 49.80 50.56 46.70 41.66 37.39 39.35 35.21 37.49 39.18 39.37 38.74 37.31 36.96 42.04 43.00 39.47 39.24 38.17 35.07 35.82 35.32 37.27 37.78 39.49 41.05 40.96 39.39 31.71 33.86 34.21 35.02 34.80 34.08 33.56 34.55 31.68 32.69 28.99
47.61 47.67 47.63 47.60 47.49 47.22 47.15 47.21 48.81 49.40 49.76 44.16 37.83 38.68 41.59 39.28 40.12 38.81 38.71 36.79 36.80 38.94 39.78 38.32 38.83 40.24 40.18 36.99 37.90 35.92 38.08 38.10 37.82 39.99 38.68 40.13 32.73 34.58 31.57 35.09 35.55 33.16 35.23 35.34 34.90 34.76 34.19
47.66 47.82 47.51 47.57 46.91 46.98 47.04 47.64 48.22 48.82 47.98 42.77 43.14 43.44 42.28 39.66 38.55 37.63 37.88 37.79 38.14 41.03 41.59 42.66 41.53 40.32 38.93 40.32 43.34 44.09 43.94 42.52 41.27 39.48 37.75 36.77 34.28 32.27 29.05 35.88 35.43 31.89 35.03 35.87 35.94 36.63 35.50
47.63 47.72 47.60 47.21 47.04 46.85 46.80 46.67 47.26 48.06 47.78 44.51 44.56 43.00 40.75 35.87 38.26 37.67 38.78 39.87 39.18 40.12 40.21 42.13 42.89 40.94 43.82 47.67 47.41 46.20 44.98 43.70 43.02 42.07 41.85 37.02 34.19 33.37 29.80 33.53 28.78 38.12 41.17 40.55 38.06 38.30 38.79
47.48 47.15 47.28 47.09 47.15 46.64 46.69 46.62 46.93 46.67 47.64 44.26 45.77 43.34 41.32 37.99 39.20 38.76 39.33 39.63 41.81 43.19 41.81 41.97 43.21 45.50 47.66 44.98 39.81 35.89 36.74 37.91 39.24 41.72 41.59 41.24 37.39 33.15 31.08 31.42 35.33 38.12 38.53 39.83 37.11 37.45 41.33
46.82 46.34 46.31 46.35 46.27 46.39 46.41 46.35 46.90 46.22 46.96 44.64 45.60 47.44 44.19 40.70 39.00 41.73 40.26 40.22 39.07 39.72 40.81 42.13 45.64 47.90 46.70 42.45 38.78 32.10 32.14 34.19 33.88 35.83 40.85 39.87 39.21 35.13 33.47 29.25 28.99 38.15 40.94 42.94 42.28 35.82 41.98
46.27 45.84 45.89 46.02 46.10 46.24 46.21 46.34 46.51 45.62 46.28 44.92 44.80 46.44 43.39 39.73 45.17 43.58 40.80 40.76 44.31 42.87 40.89 41.46 42.26 42.92 45.33 40.06 35.28 33.82 32.94 37.43 33.61 33.55 34.02 34.45 34.57 32.29 32.67 31.26 35.58 41.10 41.38 44.51 35.20 37.03 41.99
45.86 45.61 45.49 45.18 44.88 45.15 45.45 45.34 45.04 45.11 45.50 44.73 43.11 46.49 41.60 39.42 43.94 46.14 46.17 43.90 43.23 44.16 40.24 42.31 41.45 41.96 41.03 36.10 35.92 35.81 35.28 37.71 36.25 37.70 37.06 36.22 34.63 33.08 34.68 30.90 31.27 42.35 42.65 38.84 42.31 43.52 41.79
45.61 45.41 45.24 44.69 44.45 44.24 44.29 44.33 44.51 44.75 44.93 45.16 41.00 44.88 45.10 39.92 44.21 48.08 48.35 48.49 47.95 48.00 45.09 43.86 42.93 42.16 42.56 38.62 38.92 38.82 35.99 38.26 37.25 34.92 39.07 35.33 39.70 38.75 38.57 39.59 43.45 44.23 44.46 45.42 43.13 41.79 42.19
MSLP
1021.25 1020.83 1020.59 1020.12 1019.73 1019.38 1018.87 1018.36 1017.91 1017.56 1017.05 1016.64 1016.36 1015.74 1015.13 1014.64 1014.09 1013.66 1013.55 1013.78 1014.01 1014.22 1014.35 1014.34 1014.48 1014.22 1013.90 1013.50 1012.86 1012.99 1013.23 1013.12 1012.77 1013.22 1013.37 1013.43 1013.63 1013.45 1013.26 1013.25 1013.46 1012.93 1012.13 1012.19 1012.00 1011.90 1011.60
1021.44 1021.09 1020.60 1020.21 1019.68 1019.21 1018.86 1018.46 1018.00 1017.56 1017.10 1016.50 1016.22 1015.74 1015.20 1014.72 1014.12 1013.46 1013.22 1013.39 1013.62 1014.05 1014.08 1014.25 1014.29 1014.09 1013.60 1013.01 1012.91 1012.94 1012.93 1012.96 1012.70 1012.96 1013.14 1013.55 1013.78 1013.85 1013.72 1013.64 1013.54 1013.16 1012.81 1012.37 1012.07 1011.80 1011.52
1021.61 1021.03 1020.49 1019.96 1019.55 1019.12 1018.71 1018.28 1017.80 1017.33 1016.89 1016.32 1016.11 1015.72 1015.11 1014.72 1014.03 1013.48 1012.98 1012.98 1013.40 1013.65 1013.92 1014.06 1014.19 1013.82 1013.63 1012.52 1012.80 1012.86 1012.90 1013.17 1013.22 1012.91 1013.29 1013.81 1013.98 1013.97 1013.90 1013.85 1013.90 1013.46 1012.89 1012.09 1011.54 1011.40 1011.25
1021.10 1020.51 1019.90 1019.63 1019.33 1018.88 1018.46 1017.99 1017.53 1017.05 1016.50 1016.00 1015.61 1015.42 1014.94 1014.35 1013.91 1013.42 1012.86 1012.47 1012.89 1013.42 1013.65 1013.82 1013.81 1013.79 1012.94 1012.87 1013.15 1013.06 1013.04 1013.17 1013.40 1013.38 1013.52 1013.79 1014.09 1014.18 1014.20 1014.25 1013.76 1013.41 1012.98 1011.89 1011.17 1011.31 1010.96
1020.73 1020.34 1019.95 1019.28 1018.66 1018.56 1018.02 1017.50 1017.03 1016.53 1016.08 1015.63 1015.28 1014.95 1014.72 1014.26 1013.69 1013.28 1012.70 1012.25 1012.60 1013.04 1013.40 1013.58 1013.66 1013.72 1012.83 1013.05 1013.24 1012.89 1012.92 1012.94 1013.42 1013.66 1013.82 1014.07 1014.18 1014.14 1014.41 1014.08 1013.67 1013.23 1012.18 1011.97 1011.47 1011.27 1010.92
1020.55 1019.96 1019.37 1018.88 1018.44 1018.14 1017.48 1017.09 1016.56 1016.03 1015.57 1015.19 1014.89 1014.63 1014.23 1013.80 1013.29 1012.94 1012.46 1011.63 1012.30 1012.77 1013.32 1013.55 1013.82 1013.99 1013.01 1012.63 1012.87 1013.06 1013.17 1013.09 1013.42 1013.76 1014.18 1014.39 1014.36 1014.18 1014.12 1013.96 1012.77 1012.26 1012.59 1012.19 1011.60 1011.29 1011.20
1020.20 1019.53 1019.05 1018.38 1018.06 1017.37 1016.93 1016.56 1016.07 1015.59 1015.15 1015.00 1014.68 1014.14 1013.77 1013.20 1012.73 1012.48 1012.35 1011.74 1012.45 1012.89 1012.65 1011.85 1012.13 1012.41 1012.40 1012.79 1013.00 1013.11 1013.06 1013.18 1013.55 1013.85 1013.93 1014.50 1014.46 1013.81 1013.47 1013.64 1013.34 1013.36 1012.95 1012.34 1012.01 1011.96 1011.52
1019.79 1019.19 1018.64 1017.99 1017.53 1016.87 1016.50 1016.19 1015.61 1015.06 1014.69 1014.67 1014.37 1013.83 1013.39 1012.75 1012.47 1012.12 1012.21 1010.39 1009.67 1009.71 1011.52 1012.09 1012.08 1012.46 1012.72 1012.68 1012.81 1013.17 1013.29 1013.06 1013.40 1013.45 1014.10 1014.84 1014.12 1013.70 1014.01 1014.02 1013.98 1013.81 1013.26 1012.58 1012.24 1012.11 1011.95
1019.52 1018.90 1018.22 1017.70 1017.08 1016.64 1016.24 1015.53 1015.11 1014.57 1014.27 1014.00 1013.72 1013.33 1013.02 1012.45 1011.82 1011.29 1011.09 1010.81 1009.73 1010.16 1010.40 1011.87 1012.02 1012.20 1012.39 1012.60 1012.33 1012.82 1013.21 1013.19 1013.18 1013.63 1013.82 1013.60 1013.85 1013.80 1014.33 1014.36 1014.25 1013.80 1013.40 1013.02 1012.90 1012.60 1012.09
1019.35 1018.50 1018.13 1017.38 1016.86 1016.37 1015.74 1015.05 1014.58 1014.06 1013.60 1013.10 1013.07 1012.84 1012.46 1012.12 1011.82 1010.76 1010.10 1010.00 1010.37 1010.48 1011.37 1011.91 1011.91 1011.52 1012.08 1012.28 1012.32 1012.53 1012.92 1013.09 1013.49 1013.29 1013.84 1013.94 1013.71 1014.40 1014.55 1014.38 1014.31 1013.72 1013.52 1013.48 1013.49 1013.29 1011.91
1019.09 1018.45 1017.70 1017.03 1016.62 1015.95 1015.27 1014.54 1014.09 1013.44 1012.70 1012.34 1012.22 1012.20 1011.94 1012.10 1011.22 1010.73 1010.47 1009.93 1010.62 1011.80 1011.96 1011.31 1011.68 1011.67 1011.51 1011.87 1012.00 1012.74 1012.95 1012.99 1012.97 1013.22 1013.93 1013.74 1014.08 1014.30 1014.38 1014.10 1014.37 1013.82 1013.92 1013.80 1013.63 1013.19 1012.44
1018.67 1018.05 1017.39 1016.87 1016.17 1015.50 1014.69 1014.12 1013.44 1012.72 1012.07 1011.65 1011.34 1011.32 1011.23 1010.99 1010.63 1010.07 1010.13 1010.42 1010.88 1012.39 1010.81 1010.85 1011.21 1011.33 1011.64 1011.91 1012.05 1012.65 1013.02 1013.09 1013.21 1013.55 1013.86 1013.72 1014.30 1014.12 1013.75 1013.97 1014.13 1014.14 1014.17 1014.05 1013.68 1013.35 1011.64
1018.43 1017.71 1017.14 1016.51 1015.76 1014.97 1014.35 1013.72 1012.96 1012.09 1011.36 1010.86 1010.60 1009.53 1009.15 1010.08 1009.41 1009.84 1010.53 1010.65 1011.38 1010.25 1009.62 1010.17 1010.23 1010.86 1011.14 1011.52 1011.91 1012.11 1012.63 1013.01 1012.91 1013.48 1013.49 1013.56 1013.36 1013.61 1013.86 1014.04 1014.09 1014.07 1014.19 1013.31 1013.10 1012.36 1009.24
1018.34 1017.70 1016.93 1016.19 1015.36 1014.59 1014.04 1013.32 1012.42 1011.57 1010.90 1010.37 1009.47 1007.71 1006.91 1008.31 1009.02 1009.59 1010.41 1011.00 1009.57 1008.42 1008.38 1009.02 1009.43 1010.33 1010.52 1011.15 1011.55 1011.84 1012.28 1012.51 1012.73 1012.86 1013.13 1013.02 1012.59 1012.86 1013.17 1013.20 1012.80 1013.31 1013.34 1012.38 1011.07 1009.66 1008.17
1018.04 1017.38 1016.70 1015.93 1014.99 1014.38 1013.67 1013.01 1012.19 1011.16 1010.44 1009.64 1008.79 1008.04 1007.65 1008.01 1009.03 1009.78 1010.57 1009.64 1008.24 1007.42 1007.43 1008.00 1009.45 1009.82 1010.23 1010.68 1010.65 1011.36 1011.76 1011.74 1011.78 1012.41 1012.69 1012.58 1012.60 1012.72 1012.84 1012.85 1013.16 1013.05 1012.86 1012.59 1011.89 1010.33 1009.26
1017.88 1017.15 1016.50 1015.65 1014.86 1014.26 1013.51 1012.74 1011.68 1010.86 1010.18 1009.30 1008.65 1008.30 1008.01 1008.53 1008.90 1009.55 1010.36 1008.79 1007.90 1007.25 1006.94 1007.54 1008.05 1008.88 1009.21 1009.95 1010.24 1010.68 1011.00 1010.76 1010.91 1011.17 1011.70 1012.17 1012.51 1012.24 1012.51 1013.16 1012.82 1012.51 1012.61 1012.70 1012.38 1010.21 1007.79
1017.74 1017.09 1016.22 1015.48 1014.79 1014.09 1013.35 1012.39 1011.53 1010.69 1009.94 1009.16 1008.77 1008.42 1008.25 1008.90 1009.40 1009.99 1009.75 1008.75 1008.04 1007.72 1006.83 1007.11 1007.52 1008.05 1008.45 1009.05 1009.70 1010.15 1010.24 1010.57 1010.60 1010.80 1011.48 1011.93 1012.51 1012.50 1012.84 1012.09 1011.10 1012.12 1012.11 1012.21 1011.65 1010.10 1007.85
1017.62 1016.98 1016.15 1015.31 1014.76 1014.02 1013.16 1012.33 1011.43 1010.64 1009.78 1008.70 1008.78 1008.76 1008.96 1009.03 1009.95 1009.90 1009.07 1008.43 1007.87 1007.46 1007.14 1006.89 1007.19 1007.52 1008.08 1008.86 1009.41 1009.80 1009.89 1010.16 1010.45 1010.88 1011.21 1011.59 1012.01 1011.69 1011.04 1010.17 1010.36 1010.22 1010.22 1010.74 1010.57 1009.17 1007.85
1017.42 1016.83 1016.12 1015.27 1014.56 1013.84 1013.10 1012.32 1011.46 1010.39 1009.23 1008.10 1008.62 1008.63 1008.83 1009.01 1008.67 1008.78 1008.79 1007.84 1007.48 1007.32 1006.93 1006.90 1007.23 1007.50 1008.14 1008.53 1009.15 1009.51 1009.92 1010.05 1010.46 1010.45 1010.53 1011.45 1011.76 1011.45 1009.64 1009.86 1010.00 1010.15 1009.28 1009.42 1009.62 1009.30 1006.86
1017.26 1016.71 1016.07 1015.22 1014.45 1013.74 1013.12 1012.35 1011.55 1010.23 1008.69 1007.89 1008.68 1008.71 1009.18 1008.93 1008.35 1007.85 1007.86 1007.59 1007.41 1007.40 1007.38 1007.17 1007.52 1007.66 1008.02 1008.49 1008.93 1009.40 1009.74 1009.87 1010.08 1010.27 1010.89 1011.15 1010.91 1010.76 1009.51 1008.50 1009.02 1009.47 1008.90 1008.88 1009.00 1007.89 1005.63
1017.21 1016.58 1016.01 1015.23 1014.52 1013.75 1013.15 1012.44 1011.57 1010.42 1008.97 1008.51 1007.99 1008.64 1008.90 1008.68 1008.24 1007.70 1007.44 1007.47 1007.42 1007.40 1007.38 1007.36 1007.68 1007.62 1007.80 1008.17 1008.66 1008.89 1009.35 1009.67 1009.97 1010.25 1010.66 1011.10 1010.61 1010.47 1009.54 1009.03 1008.63 1008.09 1007.54 1007.61 1007.41 1005.91 1005.62
1017.15 1016.50 1015.87 1015.22 1014.61 1013.89 1013.31 1012.66 1011.66 1010.90 1009.71 1009.45 1009.61 1009.15 1008.15 1007.85 1007.97 1007.54 1007.65 1007.52 1007.40 1007.48 1007.45 1007.50 1007.40 1007.69 1007.93 1007.93 1008.04 1008.29 1008.72 1009.13 1009.01 1009.74 1010.29 1010.57 1010.11 1009.96 1008.50 1008.11 1007.15 1006.33 1005.95 1005.68 1005.77 1005.24 1004.39
1017.08 1016.60 1015.85 1015.25 1014.83 1014.10 1013.50 1012.94 1012.27 1011.36 1010.66 1010.43 1010.57 1010.13 1009.55 1008.85 1008.32 1007.72 1007.43 1007.33 1007.41 1007.42 1007.83 1007.69 1007.76 1007.88 1008.14 1008.04 1008.05 1008.16 1008.37 1008.51 1008.74 1008.97 1009.55 1010.21 1010.34 1010.09 1007.59 1006.62 1005.60 1004.92 1004.44 1004.30 1004.14 1003.74 1003.50
1016.98 1016.44 1015.86 1015.34 1014.93 1014.37 1013.77 1013.14 1012.63 1011.98 1011.66 1011.57 1010.81 1010.41 1009.31 1008.61 1008.04 1007.46 1007.34 1007.33 1007.35 1007.43 1007.55 1007.90 1007.92 1008.06 1008.31 1008.23 1008.15 1008.06 1007.92 1007.95 1008.10 1008.36 1008.63 1009.20 1009.83 1009.94 1007.78 1006.48 1004.59 1003.62 1003.33 1003.28 1003.05 1002.31 1002.27
1016.82 1016.37 1015.87 1015.37 1014.90 1014.52 1013.99 1013.47 1012.96 1012.45 1011.79 1011.50 1010.97 1010.64 1009.75 1008.66 1008.03 1007.62 1007.37 1007.40 1007.52 1007.68 1007.74 1007.91 1008.10 1008.16 1008.23 1008.27 1008.23 1007.76 1007.29 1007.48 1006.94 1007.29 1007.77 1008.45 1009.06 1008.73 1007.93 1005.94 1003.93 1002.88 1003.12 1002.81 1002.42 1001.37 1000.94
1016.69 1016.42 1015.97 1015.44 1014.94 1014.52 1014.07 1013.58 1013.04 1012.83 1012.24 1011.58 1011.09 1010.83 1010.13 1009.11 1007.71 1007.22 1007.16 1007.28 1007.34 1007.62 1008.01 1007.99 1008.41 1008.48 1008.36 1008.54 1008.31 1007.88 1006.79 1006.46 1006.40 1006.89 1007.29 1007.62 1008.07 1008.27 1007.35 1005.74 1003.77 1002.72 1002.33 1002.29 1002.11 1000.98 1000.76
1016.67 1016.34 1015.97 1015.48 1014.95 1014.51 1014.07 1013.58 1013.12 1012.61 1012.17 1011.85 1011.57 1011.36 1010.57 1009.47 1007.26 1006.85 1006.58 1006.80 1007.05 1007.27 1007.53 1007.97 1008.22 1008.59 1008.81 1008.51 1008.30 1007.77 1006.93 1006.43 1005.92 1005.87 1006.46 1006.99 1007.32 1006.85 1006.23 1005.12 1003.18 1002.25 1002.00 1002.05 1001.60 1001.77 1001.02
1016.69 1016.24 1015.86 1015.42 1015.03 1014.48 1014.22 1013.78 1013.25 1012.82 1012.26 1012.10 1011.79 1011.50 1011.62 1010.15 1007.77 1006.82 1006.55 1006.52 1006.81 1006.73 1006.87 1007.87 1008.48 1008.61 1008.73 1008.73 1008.43 1007.71 1007.00 1006.14 1005.78 1005.19 1005.00 1005.09 1005.36 1005.22 1004.61 1003.67 1002.32 1001.77 1001.80 1001.74 1001.69 1001.41 1001.50
1016.57 1016.21 1015.77 1015.28 1014.86 1014.44 1014.13 1013.77 1013.27 1012.93 1012.68 1012.24 1011.91 1011.57 1011.35 1010.69 1008.12 1007.15 1006.71 1006.53 1006.45 1006.30 1006.87 1007.55 1007.70 1007.91 1008.30 1008.52 1008.18 1007.70 1006.99 1006.26 1005.49 1004.53 1004.76 1004.52 1003.89 1003.41 1003.17 1001.81 1001.26 1001.40 1001.36 1001.55 1002.11 1002.20 1002.02
Wind_Speed
18 19 20 21 21 21 21 22 22 24 24 22 24 24 24 22 22 18 16 14 11 9 6 3 3 1 4 5 4 4 2 3 6 15 13 9 8 6 8 4 6 12 11 9 10 10 13
20 23 21 21 21 20 21 20 22 21 23 23 23 25 24 24 21 20 15 14 13 11 6 5 2 3 4 10 5 3 2 1 4 15 14 10 5 4 3 4 8 1 6 10 9 14 16
21 20 21 20 21 21 22 22 22 22 22 22 22 22 24 23 22 22 16 17 15 12 9 7 5 3 4 5 3 3 4 2 0 10 11 5 5 6 5 4 2 6 10 12 15 13 13
20 19 20 21 24 23 22 22 22 23 23 22 20 21 23 22 21 22 21 19 15 13 10 8 5 3 5 3 3 5 2 6 4 6 6 10 6 3 3 1 3 5 6 6 3 2 7
21 20 20 20 21 21 22 22 22 23 23 23 21 19 22 24 20 20 23 18 15 12 9 11 5 2 3 3 4 6 8 9 8 7 6 8 6 3 4 5 6 8 8 9 9 4 6
20 23 21 22 23 21 23 21 23 23 24 23 19 21 23 23 20 16 24 17 15 14 11 7 4 3 5 2 4 5 6 11 6 11 7 5 4 6 8 8 6 5 8 7 10 3 6
23 23 22 23 24 21 24 23 22 21 21 22 24 22 21 20 19 15 15 7 8 5 8 7 9 1 5 6 5 4 8 10 8 11 11 7 7 12 14 14 9 2 6 10 8 7 15
23 25 24 23 24 23 24 22 23 22 21 19 20 21 20 19 19 18 11 5 15 8 9 8 8 5 2 3 5 8 8 9 11 12 9 6 12 12 6 10 12 14 16 16 14 12 11
25 25 26 26 25 25 24 23 22 23 20 16 18 21 18 19 21 14 7 12 5 7 4 9 11 6 4 6 4 13 14 8 12 11 16 8 3 1 12 12 12 16 17 14 16 15 18
27 27 26 27 26 24 24 23 22 23 22 20 14 16 19 21 14 7 5 8 4 4 3 9 10 7 10 6 4 10 14 5 5 12 10 9 9 6 7 9 12 14 8 13 13 10 7
26 26 27 27 26 24 24 23 23 22 22 21 15 20 20 18 9 7 6 8 7 5 7 11 7 7 12 12 12 6 9 3 7 9 6 3 6 9 12 12 12 7 4 7 9 11 12
26 26 25 26 25 24 24 23 23 24 23 21 23 23 24 11 7 10 4 8 2 5 6 7 7 10 14 9 6 8 10 1 3 5 6 7 1 5 6 8 13 3 7 9 11 8 10
25 25 26 26 25 24 25 23 23 24 24 25 28 32 26 10 5 10 6 3 6 7 7 10 10 14 15 12 9 11 13 9 7 6 7 5 16 6 8 9 8 11 5 3 5 7 10
27 26 26 26 25 24 24 24 25 25 25 26 31 26 5 10 10 9 3 3 4 5 6 5 13 16 9 17 7 11 13 10 10 4 3 5 5 15 11 16 4 18 14 6 8 11 12
26 25 25 25 25 25 25 24 25 26 24 28 23 5 4 8 12 5 6 4 3 6 12 13 14 9 6 13 6 8 10 8 11 14 7 6 5 2 7 8 12 6 10 13 19 20 14
25 25 25 25 24 25 25 25 26 26 26 30 5 4 4 11 10 5 2 3 2 3 17 16 8 7 9 13 8 10 12 6 9 16 14 2 5 7 3 7 11 14 1 5 7 7 19
25 25 25 24 25 24 24 26 26 28 29 30 2 2 9 11 7 5 1 3 4 11 10 3 7 8 8 12 8 12 6 3 8 11 17 7 5 4 3 13 13 11 9 7 6 9 9
24 25 25 25 24 24 24 26 28 30 30 13 3 1 6 8 4 1 1 1 5 6 0 5 8 10 13 13 11 9 9 5 8 11 11 12 5 8 14 14 15 16 16 19 10 12 7
24 24 24 24 23 23 25 26 28 31 33 5 2 1 2 4 3 4 2 1 3 2 3 3 4 3 6 9 7 8 5 2 11 12 12 11 6 5 5 3 8 11 19 22 18 10 20
24 24 23 23 23 23 25 26 28 31 34 3 3 3 3 2 1 8 8 3 5 5 3 7 6 5 7 6 2 7 7 4 11 13 5 10 6 8 10 14 8 8 12 19 19 13 17
24 22 22 23 23 24 25 26 27 29 32 4 1 4 3 4 3 8 3 3 8 4 3 3 4 3 5 4 5 4 6 3 4 8 9 8 7 11 20 23 22 24 26 20 23 28 19
23 22 22 22 23 23 24 25 26 28 28 3 4 4 3 3 7 10 2 3 3 4 3 3 3 8 7 3 5 4 5 6 5 10 12 6 7 4 17 21 23 24 24 22 19 24 27
22 22 23 21 21 22 23 22 24 25 20 3 1 3 4 5 6 8 5 7 6 6 3 4 6 5 6 5 7 8 9 4 4 6 13 5 2 3 10 14 22 10 8 11 7 12 20
22 22 21 20 19 20 21 22 23 23 19 4 1 2 3 4 6 5 6 5 8 7 5 3 5 3 1 3 4 6 11 12 13 13 11 6 4 3 9 12 5 5 5 10 13 16 17
20 21 21 19 19 18 19 20 22 23 23 6 3 2 3 1 7 7 5 5 5 5 3 3 2 2 2 2 3 5 3 5 8 13 16 15 7 3 4 4 11 4 8 6 4 6 5
19 19 20 20 19 19 19 19 20 21 22 7 2 3 2 3 7 8 8 7 7 4 3 3 2 1 2 2 3 4 3 1 2 4 2 8 11 5 2 4 5 7 6 2 2 3 12
18 18 18 18 19 19 18 18 19 21 22 8 2 7 3 3 4 10 10 8 5 5 3 1 2 2 2 4 4 4 4 1 2 3 4 4 3 6 7 5 6 4 5 3 5 8 14
17 17 17 17 18 18 19 19 19 19 20 11 4 4 4 4 7 4 6 4 3 4 4 4 3 2 2 3 3 3 3 2 3 2 4 7 6 5 4 4 3 3 3 3 4 8 8
16 16 17 16 17 17 17 18 17 17 18 14 3 3 4 5 4 2 2 2 2 4 4 3 1 4 3 3 3 3 3 3 3 3 3 5 5 2 6 3 3 2 7 5 4 6 4
Wind_Direction
355 352 356 353 352 352 350 348 349 348 340 339 333 326 333 335 330 289 225 220 219 224 232 245 286 238 193 206 216 118 319 320 230 178 174 175 187 195 218 207 216 236 254 253 254 258 259
353 347 353 349 346 343 347 345 345 343 338 332 331 326 325 332 325 312 241 213 209 214 203 196 206 209 198 222 104 86 76 66 193 180 187 176 198 217 227 220 233 297 269 268 271 262 262
353 348 340 342 342 344 339 338 337 335 335 331 328 320 317 322 326 322 277 208 204 202 184 169 169 177 212 233 122 84 59 95 97 182 175 149 152 192 166 193 218 275 280 276 261 252 259
336 331 339 340 331 336 333 331 328 329 329 323 324 321 318 320 320 318 319 208 195 193 179 167 146 173 246 83 241 243 145 122 106 92 208 155 171 143 224 121 217 252 263 281 88 275 233
331 340 332 323 322 328 323 327 326 325 326 321 322 321 314 310 310 317 312 208 186 170 175 147 142 213 246 120 210 205 195 159 130 115 120 131 158 166 162 232 246 214 258 233 281 248 282
332 331 327 327 330 327 319 325 324 323 325 321 318 316 312 307 298 319 315 194 164 129 126 117 95 212 206 188 148 160 172 159 147 142 126 155 170 209 216 200 237 227 225 232 252 166 272
329 329 329 325 329 327 327 326 319 318 319 327 321 313 313 308 302 306 321 177 137 147 199 195 173 135 134 110 139 175 158 139 140 191 202 192 204 214 221 223 239 298 267 260 255 272 301
329 330 331 328 327 329 329 326 318 324 326 334 320 318 315 316 315 308 299 235 170 159 181 186 149 158 130 162 131 151 187 160 171 192 170 178 234 237 240 236 240 249 261 265 280 274 274
333 332 331 332 330 331 328 322 321 320 324 308 303 308 316 318 317 302 242 268 283 333 108 166 191 181 181 186 170 172 188 163 183 172 194 203 105 216 210 221 232 241 254 270 277 296 287
331 332 333 330 334 334 325 327 323 324 319 310 316 308 309 317 298 296 245 212 132 13 132 161 186 208 181 160 212 159 182 169 167 197 188 238 236 203 186 226 230 263 263 257 258 276 274
333 339 334 334 336 332 326 332 325 322 319 322 314 318 304 307 287 295 343 146 61 71 183 135 147 138 163 177 129 167 173 176 173 158 167 145 177 193 221 235 216 238 214 243 254 257 280
335 337 334 339 335 333 331 332 326 328 326 320 320 310 300 292 238 247 57 116 73 102 205 155 132 158 155 187 145 127 172 186 157 175 229 254 185 212 223 219 207 109 227 255 260 263 246
340 343 344 338 336 336 337 333 333 327 326 329 320 293 262 245 237 155 140 81 120 210 166 149 158 154 157 167 142 154 172 174 169 165 205 235 228 203 194 229 213 221 203 250 228 208 244
340 340 341 340 340 344 340 336 334 331 330 329 320 329 182 200 206 140 90 160 160 119 127 162 144 151 165 153 157 163 165 189 213 191 136 230 210 194 193 217 210 208 210 224 251 257 284
345 343 343 345 343 345 342 345 334 330 332 326 331 330 133 157 147 105 154 190 110 162 139 138 133 151 126 173 166 150 181 197 197 196 202 181 256 200 215 204 209 180 218 243 272 267 266
345 342 348 347 349 346 345 343 338 337 335 333 326 306 110 121 116 91 115 67 308 139 133 142 127 188 161 164 162 177 182 202 209 196 207 175 263 213 173 210 241 226 338 205 203 259 251
348 345 347 350 350 351 346 345 344 339 338 336 22 309 123 120 85 62 235 117 112 143 122 143 133 139 154 163 174 180 176 173 210 192 193 180 213 140 165 206 211 196 225 211 277 255 268
347 346 347 349 355 351 349 349 346 342 335 320 116 120 144 165 93 166 175 164 127 145 282 102 99 101 148 162 171 190 206 247 180 154 187 203 218 242 241 239 228 236 237 223 233 233 220
348 349 349 349 353 353 358 352 348 343 333 302 91 93 107 221 141 117 173 93 89 154 60 96 103 105 161 159 154 193 197 226 175 187 181 170 211 284 247 193 226 242 241 235 236 262 245
348 352 350 351 355 355 359 354 351 346 346 17 115 108 65 335 329 118 145 74 105 43 76 73 103 100 124 149 140 177 214 215 195 206 174 177 225 227 258 283 312 248 253 236 220 237 257
349 350 351 356 354 357 360 355 354 354 353 347 298 81 143 144 145 143 82 89 125 113 62 89 111 145 147 140 162 217 202 190 185 203 189 213 248 244 257 275 278 269 266 254 225 232 238
346 350 350 356 0 358 359 358 357 1 351 45 21 352 14 58 146 167 94 157 125 98 128 148 141 154 176 158 204 192 196 209 219 188 198 217 274 286 278 269 263 271 265 257 241 239 248
344 347 349 356 0 357 357 0 1 2 9 2 14 267 281 130 168 174 168 171 168 137 61 93 169 132 217 234 265 264 234 228 230 200 203 202 221 284 271 316 308 271 261 256 240 235 235
347 349 351 354 357 358 356 359 1 3 13 331 292 286 298 156 186 169 163 161 195 198 115 138 124 153 126 17 294 266 251 249 241 237 214 189 174 222 288 306 278 334 245 257 267 263 240
348 350 354 352 357 357 355 358 359 4 2 353 318 297 308 149 210 205 199 182 106 106 100 152 161 112 347 286 277 300 241 219 230 226 225 225 233 266 284 293 279 333 344 330 287 354 312
352 353 353 357 357 355 356 356 357 4 1 2 321 318 301 319 217 199 203 196 191 188 161 196 104 165 107 250 210 256 265 322 141 171 40 218 224 213 303 294 304 314 340 280 258 19 359
346 350 349 354 353 354 352 354 2 359 358 5 294 356 302 270 249 197 191 181 178 167 126 138 101 122 161 211 237 229 249 292 257 232 163 139 182 231 235 261 271 257 295 289 342 342 344
339 342 343 350 350 354 353 352 354 354 352 359 281 44 349 307 281 225 181 151 135 182 144 130 159 171 151 223 242 235 245 244 265 234 189 204 190 207 212 246 289 185 252 316 348 322 322
333 334 336 341 342 346 344 340 342 346 348 353 312 335 305 229 286 306 310 325 270 180 150 181 11 136 148 223 225 301 236 224 269 268 182 226 235 298 233 261 6 247 268 298 320 290 302